[[{"header":{"parameterUnit":"m.s-1","parameterCategory":1,"la1":30.2991,"la2":30.254,"lo1":-89.0895,"lo2":-89.0444,"dy":0.0017,"dx":0.0017,"nx":28,"ny":28,"refTime":"2024-06-23T03:00:00:Z","depth":0,"parameterNumber":2,"parameterNumberName":"U-component_of_WINDS"},"data":[0,0,0,0,0,0,0,0,0,0,0,0,0,0,0,0,0,0,0,0,0,0,0,0,0,0,0,0,0,0,0,0,0,0,0,0,0,0,0,0,0,0,0,0,0,0,0,0,0,0,0,0,0,0,0,0,0,0,0.8198,0.8198,0,0.8226,0.8226,0.8226,0.8239,0.8239,0.8239,0.8239,0.8268,0.8268,0.8269,0,0,0,0,0,0,0,0,0,0,0,0,0,0.8156,0.8157,0.8198,0.8198,0.8198,0.8226,0.8226,0.8226,0.8239,0.8239,0.8239,0.8239,0.8267,0.8268,0.8269,0,0,0,0,0,0,0,0,0,0,0,0,0,0.8178,0.8157,0.8198,0.8208,0.8209,0.8226,0.8226,0.8226,0.8239,0.8239,0.8239,0.8239,0.8267,0.8268,0.8269,0.8277,0,0,0.8273,0.8273,0,0,0,0,0,0,0,0,0.8177,0.818,0.8206,0.8207,0.8209,0.8229,0.8222,0.8244,0.8239,0.8228,0.8239,0.8239,0.8255,0.8257,0.8262,0.8279,0.828,0.8273,0.8274,0.8274,0.8275,0,0,0,0,0,0,0,0.8176,0.8179,0.8209,0.8207,0.8208,0.8212,0.8215,0.8226,0.8241,0.8229,0.823,0.8233,0.8255,0.8261,0.8263,0.828,0.8273,0.8274,0.8275,0.8275,0.8306,0.8307,0,0,0,0,0,0,0.8172,0.8177,0.8208,0.821,0.8192,0.8212,0.8216,0.8222,0.8241,0.8244,0.8233,0.8233,0.8259,0.8262,0.8264,0.8276,0.8274,0.8275,0.8276,0.8306,0.8306,0.8307,0,0,0,0,0,0,0.8171,0.8175,0.8207,0.8194,0.8198,0.8213,0.822,0.8223,0.8229,0.8244,0.8247,0.8236,0.8259,0.8262,0.8274,0.8277,0.8276,0.8277,0.8306,0.8306,0.8307,0.8298,0,0,0,0,0,0,0.817,0.8174,0.8177,0.8194,0.8199,0.8216,0.8221,0.8224,0.8231,0.8232,0.8248,0.825,0.8259,0.8272,0.8275,0.8278,0.8278,0.8306,0.8306,0.8306,0.8298,0.8298,0.8298,0,0,0,0,0,0.8169,0.8173,0.8177,0.8181,0.8203,0.8216,0.8219,0.8229,0.8231,0.8234,0.8244,0.825,0.8276,0.8274,0.8277,0.828,0.8306,0.8306,0.8306,0.8298,0.8298,0.8298,0,0,0,0,0,0,0.8156,0.8176,0.818,0.8191,0.8202,0.8218,0.8223,0.8229,0.8239,0.824,0.8252,0.8256,0.8267,0.8275,0.8272,0.829,0.8292,0.8293,0.8284,0.8284,0.8284,0.8282,0.8279,0,0,0,0,0,0.8155,0.8164,0.8181,0.8188,0.8194,0.8207,0.8214,0.8221,0.8233,0.8237,0.8248,0.826,0.8271,0.8278,0.8289,0.83,0.8304,0.8304,0.8303,0.8303,0.8304,0.8311,0.8312,0.8307,0.8307,0.8307,0,0,0.8152,0.8164,0.8169,0.8186,0.8196,0.8206,0.8211,0.8221,0.8228,0.8239,0.8251,0.826,0.8274,0.8285,0.8291,0.8292,0.8306,0.8303,0.8303,0.8304,0.8312,0.8312,0.8312,0.8308,0.8308,0.8308,0,0,0.8152,0.8161,0.8169,0.8179,0.8193,0.8203,0.8205,0.8221,0.8227,0.8239,0.8248,0.8257,0.8275,0.8285,0.8293,0.8298,0.8304,0.8301,0.83,0.8307,0.8307,0.8308,0.831,0.8311,0.8302,0.8302,0.8302,0,0.8146,0.8161,0.8172,0.8182,0.819,0.8201,0.8209,0.8218,0.8235,0.8241,0.8242,0.8266,0.8276,0.8291,0.8292,0.8297,0.8301,0.8299,0.8306,0.8307,0.8307,0.831,0.8311,0.8301,0.8301,0.8302,0.8302,0,0.8154,0.8164,0.8169,0.8186,0.8194,0.8203,0.8217,0.8224,0.8231,0.824,0.8253,0.8266,0.828,0.8284,0.829,0.83,0.83,0.8304,0.8306,0.8307,0.831,0.8311,0.8301,0.8301,0.8301,0.8301,0,0,0.8146,0.817,0.8172,0.818,0.8197,0.8206,0.8216,0.823,0.8236,0.8248,0.8257,0.8273,0.8277,0.8285,0.8293,0.83,0.8304,0.8302,0.8303,0.8303,0.8316,0.8314,0.8314,0.8308,0.8308,0.8308,0.8315,0,0.8148,0.8167,0.8178,0.8192,0.8202,0.8213,0.8222,0.8234,0.8243,0.8253,0.8264,0.8275,0.8279,0.8284,0.8291,0.8302,0.8307,0.8302,0.8317,0.8318,0.8313,0.8316,0.8313,0.8318,0.8316,0.8316,0.8317,0,0.8153,0.8166,0.8181,0.8198,0.8203,0.8211,0.8225,0.8235,0.8249,0.8255,0.8266,0.8274,0.8286,0.8287,0.8304,0.83,0.8307,0.8314,0.8314,0.8316,0.8317,0.8318,0.832,0.8321,0.8318,0.8318,0.8318,0,0.8147,0.8167,0.8179,0.8186,0.8206,0.8211,0.822,0.8235,0.8243,0.8256,0.8261,0.8275,0.8283,0.8294,0.8306,0.8306,0.8322,0.8324,0.8328,0.8328,0.8331,0.833,0.8335,0.8335,0.8335,0.8335,0.8335,0,0.8148,0.8157,0.8176,0.8183,0.8194,0.8208,0.8218,0.8228,0.824,0.825,0.8261,0.827,0.8285,0.8296,0.8306,0.8319,0.8322,0.8328,0.8331,0.8327,0.8327,0.8332,0.8332,0.8335,0.8335,0.8335,0.8335,0,0.8142,0.8155,0.8169,0.8188,0.8193,0.82,0.8216,0.8224,0.8235,0.8247,0.8251,0.8267,0.8281,0.8294,0.8313,0.8319,0.8332,0.8335,0.8327,0.8329,0.8332,0.8332,0.834,0.8342,0.8341,0.8341,0.8341,0,0.8142,0.815,0.8169,0.8177,0.8186,0.8197,0.8206,0.822,0.8229,0.8246,0.8252,0.8267,0.8279,0.8301,0.8315,0.8329,0.8333,0.8335,0.8335,0.8332,0.8334,0.8333,0.8334,0.8335,0.8335,0.8335,0.8335,0,0.8141,0.8148,0.816,0.8175,0.8185,0.8197,0.821,0.8216,0.8232,0.8241,0.8256,0.8266,0.8285,0.83,0.8316,0.8326,0.8333,0.8335,0.8336,0.8333,0.8328,0.8331,0.8327,0.8334,0.8334,0.8334,0.8334,0.8334,0.8139,0.8146,0.8162,0.8175,0.8186,0.8198,0.8207,0.8219,0.8231,0.8248,0.8256,0.827,0.8286,0.8309,0.8318,0.833,0.8332,0.8335,0.8335,0.8336,0.8335,0.8326,0.8333,0.8333,0.8334,0.8334,0.8334,0,0.8139,0.815,0.8162,0.818,0.8191,0.8197,0.8212,0.8221,0.8233,0.8247,0.826,0.8277,0.8292,0.8307,0.8323,0.833,0.8333,0.8333,0.8333,0.8335,0.8332,0.833,0.833,0.833,0.833,0.833,0.833,0.833,0.814,0.8153,0.8162,0.8181,0.8192,0.8207,0.8215,0.8226,0.8237,0.8256,0.8268,0.8278,0.8293,0.831,0.8324,0.8328,0.8334,0.8333,0.8338,0.8335,0.8335,0.8335,0.8333,0.8334,0.8334,0.834,0.834,0.834]},{"header":{"parameterUnit":"m.s-1","parameterCategory":1,"la1":30.2991,"la2":30.254,"lo1":-89.0895,"lo2":-89.0444,"dy":0.0017,"dx":0.0017,"nx":28,"ny":28,"refTime":"2024-06-23T03:00:00:Z","depth":0,"parameterNumber":3,"parameterNumberName":"V-component_of_WINDS"},"data":[0,0,0,0,0,0,0,0,0,0,0,0,0,0,0,0,0,0,0,0,0,0,0,0,0,0,0,0,0,0,0,0,0,0,0,0,0,0,0,0,0,0,0,0,0,0,0,0,0,0,0,0,0,0,0,0,0,0,0.6105,0.6105,0,0.6107,0.6107,0.6107,0.6112,0.6112,0.6112,0.6112,0.6113,0.6113,0.6113,0,0,0,0,0,0,0,0,0,0,0,0,0,0.6106,0.6106,0.6105,0.6105,0.6105,0.6107,0.6107,0.6107,0.6112,0.6112,0.6112,0.6112,0.6113,0.6113,0.6113,0,0,0,0,0,0,0,0,0,0,0,0,0,0.6106,0.6106,0.6105,0.6108,0.6108,0.6107,0.6107,0.6107,0.6111,0.6112,0.6112,0.6112,0.6113,0.6113,0.6113,0.6109,0,0,0.6113,0.6113,0,0,0,0,0,0,0,0,0.6106,0.6106,0.6107,0.6108,0.6108,0.6109,0.6108,0.6108,0.6111,0.611,0.6112,0.6112,0.6112,0.6112,0.6112,0.611,0.611,0.6113,0.6113,0.6113,0.6113,0,0,0,0,0,0,0,0.6106,0.6106,0.6106,0.6107,0.6108,0.6109,0.6109,0.6108,0.611,0.611,0.6111,0.6111,0.6112,0.6112,0.6112,0.611,0.6113,0.6113,0.6113,0.6113,0.6104,0.6104,0,0,0,0,0,0,0.6106,0.6106,0.6106,0.6106,0.6107,0.6109,0.6109,0.6109,0.611,0.611,0.6111,0.6111,0.6112,0.6112,0.6112,0.6108,0.6113,0.6113,0.6113,0.6105,0.6104,0.6104,0,0,0,0,0,0,0.6106,0.6106,0.6106,0.6106,0.6106,0.6108,0.6108,0.6108,0.6108,0.611,0.6111,0.611,0.6112,0.6112,0.611,0.6108,0.6113,0.6113,0.6105,0.6105,0.6104,0.6099,0,0,0,0,0,0,0.6106,0.6106,0.6104,0.6106,0.6106,0.6104,0.6108,0.6108,0.6108,0.6109,0.611,0.611,0.6112,0.611,0.611,0.6108,0.6112,0.6105,0.6105,0.6104,0.6099,0.6099,0.6098,0,0,0,0,0,0.6106,0.6103,0.6104,0.6104,0.6104,0.6104,0.6104,0.6106,0.6108,0.6107,0.6108,0.611,0.6108,0.611,0.611,0.6107,0.6105,0.6105,0.6104,0.61,0.6099,0.6098,0,0,0,0,0,0,0.6101,0.6103,0.6105,0.6102,0.6103,0.6104,0.6103,0.6105,0.6105,0.6105,0.6108,0.6108,0.6106,0.6106,0.6108,0.6104,0.6107,0.6107,0.6104,0.6103,0.6102,0.6102,0.6112,0,0,0,0,0,0.6099,0.6098,0.6101,0.6098,0.6098,0.6101,0.61,0.6102,0.6103,0.6103,0.6104,0.6104,0.6104,0.6103,0.6103,0.61,0.61,0.6098,0.6097,0.6097,0.6096,0.6094,0.6094,0.6103,0.6103,0.6103,0,0,0.6096,0.6097,0.6097,0.6097,0.6098,0.6097,0.6101,0.6099,0.6099,0.6103,0.6101,0.6102,0.6102,0.61,0.6099,0.61,0.6094,0.6096,0.6096,0.6096,0.6094,0.6093,0.6092,0.6103,0.6103,0.6103,0,0,0.609,0.6091,0.6089,0.609,0.6091,0.6092,0.6092,0.6093,0.6094,0.6092,0.6095,0.6094,0.6093,0.6094,0.6094,0.6088,0.609,0.6088,0.6084,0.6082,0.6081,0.6081,0.6079,0.6078,0.6087,0.6087,0.6087,0,0.6086,0.6085,0.6088,0.6086,0.6086,0.609,0.6088,0.6088,0.6089,0.6089,0.6091,0.609,0.609,0.6088,0.6086,0.6086,0.6086,0.6088,0.6081,0.6081,0.608,0.6078,0.6077,0.6087,0.6087,0.6087,0.6087,0,0.608,0.6079,0.6077,0.6078,0.6078,0.6076,0.6079,0.6078,0.608,0.6081,0.608,0.6081,0.608,0.608,0.6082,0.6078,0.6079,0.6081,0.6084,0.6079,0.6077,0.6076,0.6087,0.6087,0.6087,0.6087,0,0,0.607,0.6073,0.6072,0.6073,0.6074,0.6073,0.6072,0.6072,0.6071,0.6072,0.607,0.607,0.6072,0.6072,0.6073,0.6072,0.6067,0.6074,0.6074,0.6073,0.6063,0.6061,0.606,0.6069,0.6069,0.6068,0.6062,0,0.6064,0.6062,0.6065,0.6062,0.6061,0.6064,0.6063,0.6064,0.6065,0.6064,0.6066,0.6065,0.6068,0.6068,0.6067,0.6068,0.6065,0.6069,0.6067,0.6067,0.6067,0.6059,0.6057,0.6051,0.6062,0.6062,0.6062,0,0.6057,0.6057,0.6054,0.6056,0.6056,0.6055,0.6055,0.6054,0.6055,0.6056,0.6056,0.6059,0.6057,0.606,0.6058,0.6061,0.606,0.6061,0.6061,0.606,0.6064,0.6058,0.6049,0.6048,0.606,0.606,0.6061,0,0.605,0.605,0.6048,0.6048,0.605,0.6049,0.605,0.6051,0.6051,0.6051,0.6051,0.6051,0.6051,0.6051,0.6053,0.6055,0.605,0.6054,0.6051,0.6051,0.6049,0.6049,0.604,0.605,0.605,0.605,0.605,0,0.6043,0.6041,0.6045,0.6044,0.6041,0.6044,0.6042,0.6043,0.6044,0.6043,0.6046,0.6045,0.6048,0.6048,0.6049,0.6047,0.6047,0.6048,0.6048,0.6047,0.6047,0.6047,0.6047,0.605,0.605,0.605,0.605,0,0.6035,0.6037,0.6035,0.6037,0.6038,0.6036,0.6038,0.6037,0.6039,0.6037,0.6037,0.604,0.6039,0.6041,0.6041,0.6042,0.6039,0.604,0.6038,0.6039,0.6036,0.6036,0.6026,0.6024,0.6035,0.6035,0.6035,0,0.603,0.6028,0.603,0.603,0.6031,0.603,0.603,0.6033,0.6033,0.6034,0.6032,0.6032,0.6032,0.6031,0.6032,0.6032,0.6033,0.603,0.6033,0.6032,0.6033,0.6033,0.6032,0.6029,0.6029,0.6028,0.6028,0,0.6021,0.6022,0.6022,0.6022,0.6022,0.6022,0.6023,0.6022,0.6026,0.6025,0.6025,0.6024,0.6024,0.6024,0.6024,0.6025,0.6027,0.6027,0.6027,0.6025,0.6025,0.6025,0.6036,0.6027,0.6028,0.6028,0.6028,0.6028,0.6014,0.6013,0.6014,0.6014,0.6014,0.6015,0.6014,0.6015,0.6015,0.6015,0.6017,0.6016,0.6017,0.6018,0.6018,0.6017,0.6019,0.6018,0.6018,0.6017,0.6016,0.6025,0.6017,0.6017,0.6017,0.6017,0.6017,0,0.6005,0.6006,0.6005,0.6006,0.6006,0.6009,0.6009,0.6009,0.6008,0.6009,0.6009,0.6008,0.6008,0.6009,0.6009,0.6008,0.6009,0.6008,0.6008,0.6008,0.6015,0.6016,0.6007,0.6007,0.6007,0.6007,0.6007,0.6007,0.6,0.5998,0.5999,0.5998,0.5999,0.5998,0.5999,0.5999,0.6,0.5999,0.5999,0.6,0.6001,0.6001,0.6001,0.6001,0.6001,0.5999,0.6,0.6007,0.6008,0.6008,0.6009,0.5999,0.5999,0.5993,0.5993,0.5993]}]]